Weather History for KYIP - June, 2013

Change the Weather History Date:

Saturday, June 1, 2013

  Actual Average Record
Temperature  
Mean Temperature 74 °F -  
Max Temperature 82 °F 77 °F 90 °F (1988)
Min Temperature 66 °F 54 °F 37 °F (2003)
Cooling Degree Days 8    
Growing Degree Days 24 (Base 50)    
Moisture  
Dew Point 63 °F    
Average Humidity 71    
Maximum Humidity 88    
Minimum Humidity 54    
Precipitation  
Precipitation 0.18 in - - ()
Sea Level Pressure  
Sea Level Pressure 29.78 in    
Wind  
Wind Speed 13 mph (SSW)    
Max Wind Speed 18 mph    
Max Gust Speed 26 mph    
Visibility 10 miles    
Events Rain    
Averages and records for this station are not official NWS values.
T = Trace of Precipitation, MM = Missing Value Source: NWS Daily Summary

Daily Weather History Graph

Daily Weather History Graph

Search for Another Location

Airport or City:

Trip Planner

Search our weather history database for the weather conditions in past years. The results will help you decide how hot, cold, wet, or windy it might be!

Date:

Astronomy

Jun. 01, 2013 Rise Set
Actual Time 6:00 AM EDT 9:04 PM EDT
Civil Twilight 5:26 AM EDT 9:38 PM EDT
Nautical Twilight 4:43 AM EDT 10:21 PM EDT
Astronomical Twilight 3:52 AM EDT 11:12 PM EDT
Moon 2:02 AM EDT (6/1) 2:25 PM EDT (6/1)
Length of Visible Light 16h 11m
Length of Day
15h 04m
Last Quarter, 41% of the Moon is Illuminated
Jun 1
Last Quarter
Jun 8
New
Jun 16
First Quarter
Jun 23
Full
Jun 30
Last Quarter

Hourly Weather History & Observations

Time (EDT) Temp. Heat Index Dew Point Humidity Pressure Visibility Wind Dir Wind Speed Gust Speed Precip Events Conditions
12:53 AM 73.0 °F - 66.9 °F 81% 29.85 in 10.0 mi SSW 17.3 mph - N/A   Scattered Clouds
1:53 AM 72.0 °F - 64.9 °F 78% 29.81 in 10.0 mi SSW 16.1 mph - 0.02 in Rain Light Rain
2:53 AM 71.1 °F - 62.1 °F 73% 29.81 in 10.0 mi SW 13.8 mph - 0.00 in Rain Light Rain
3:53 AM 68.0 °F - 62.1 °F 81% 29.80 in 10.0 mi SW 15.0 mph - 0.05 in Rain Light Rain
4:53 AM 66.9 °F - 61.0 °F 81% 29.85 in 10.0 mi SW 17.3 mph 25.3 mph 0.01 in Rain Light Rain
5:53 AM 66.9 °F - 62.1 °F 84% 29.83 in 10.0 mi South 8.1 mph - 0.09 in Rain Light Rain
6:46 AM 66.2 °F - 62.6 °F 88% 29.82 in 10.0 mi SW 4.6 mph - 0.01 in   Scattered Clouds
6:53 AM 66.9 °F - 62.1 °F 84% 29.81 in 10.0 mi SSW 9.2 mph - 0.01 in   Mostly Cloudy
7:53 AM 68.0 °F - 62.1 °F 81% 29.81 in 10.0 mi SSW 8.1 mph - 0.00 in   Scattered Clouds
8:53 AM 71.1 °F - 63.0 °F 75% 29.78 in 10.0 mi SSW 12.7 mph - 0.00 in   Mostly Cloudy
9:53 AM 73.0 °F - 64.0 °F 73% 29.77 in 10.0 mi SSW 13.8 mph 20.7 mph N/A   Partly Cloudy
10:53 AM 75.9 °F - 64.9 °F 69% 29.76 in 10.0 mi SSW 11.5 mph - N/A   Mostly Cloudy
11:53 AM 78.1 °F - 64.9 °F 64% 29.79 in 10.0 mi SW 15.0 mph - N/A   Scattered Clouds
12:53 PM 81.0 °F 82.7 °F 64.9 °F 58% 29.79 in 10.0 mi SW 12.7 mph 24.2 mph N/A   Partly Cloudy
1:53 PM 81.0 °F 82.5 °F 64.0 °F 56% 29.78 in 10.0 mi SW 17.3 mph 25.3 mph N/A   Mostly Cloudy
2:53 PM 81.0 °F 82.2 °F 63.0 °F 54% 29.78 in 10.0 mi SW 18.4 mph 26.5 mph N/A   Scattered Clouds
3:53 PM 81.0 °F 82.5 °F 64.0 °F 56% 29.77 in 10.0 mi SW 11.5 mph 24.2 mph N/A   Mostly Cloudy
4:53 PM 79.0 °F - 61.0 °F 54% 29.78 in 10.0 mi SW 18.4 mph 23.0 mph N/A   Scattered Clouds
5:53 PM 75.9 °F - 61.0 °F 60% 29.78 in 10.0 mi WSW 11.5 mph - 0.00 in   Overcast
6:53 PM 75.0 °F - 60.1 °F 60% 29.77 in 10.0 mi SW 10.4 mph - 0.00 in   Overcast
7:53 PM 73.9 °F - 61.0 °F 64% 29.75 in 10.0 mi SSW 6.9 mph - N/A   Mostly Cloudy
8:53 PM 73.0 °F - 62.1 °F 68% 29.75 in 10.0 mi South 5.8 mph - 0.00 in   Overcast
9:53 PM 71.1 °F - 62.1 °F 73% 29.73 in 10.0 mi SSW 3.5 mph - N/A   Scattered Clouds
10:53 PM 71.1 °F - 62.1 °F 73% 29.70 in 10.0 mi Calm Calm - N/A   Clear
11:53 PM 70.0 °F - 63.0 °F 78% 29.70 in 10.0 mi South 3.5 mph - N/A   Mostly Cloudy